FW9975 Weather Reports


time (UTC)temp
F
wind
direction
speed
knots
gust
knots
rain 1hr
in
rain 24hr
in
rain mn
in
humidity
%
barometer
mb
20260903011025 86 261 0.0 0.0 0.00 0.00 0.00 68 1012.9
20260903010520 86 261 0.0 0.0 0.00 0.00 0.00 67 1012.5
20260903010020 87 261 0.0 0.0 0.00 0.00 0.00 67 1012.5
20260903005519 87 261 0.0 0.0 0.00 0.00 0.00 66 1012.5
20260903005015 87 261 0.0 0.9 0.00 0.00 0.00 65 1012.6
20260903004509 87 261 0.0 0.0 0.00 0.00 0.00 65 1012.5
20260903004005 88 260 0.0 0.0 0.00 0.00 0.00 64 1012.4
20260903003500 88 260 0.0 0.0 0.00 0.00 0.00 63 1012.5
20260903002955 89 261 0.0 0.0 0.00 0.00 0.00 63 1012.3
20260903002455 89 261 0.0 0.9 0.00 0.00 0.00 62 1012.5
20260903001954 89 261 0.0 0.9 0.00 0.00 0.00 61 1012.4
20260903001450 90 261 0.0 0.9 0.00 0.00 0.00 61 1012.1
20260903000944 90 261 0.0 0.9 0.00 0.00 0.00 60 1012.2
20260903000439 91 264 0.0 0.9 0.00 0.00 0.00 59 1012.3
20260902235938 91 261 0.9 1.7 0.00 0.00 0.00 59 1012.2
20260902235433 91 263 0.9 0.9 0.00 0.00 0.00 58 1012.2
20260902234932 91 251 2.6 2.6 0.00 0.00 0.00 56 1012.4
20260902234428 92 263 2.6 4.3 0.00 0.00 0.00 57 1012.2
20260902233926 92 266 0.9 0.9 0.00 0.00 0.00 57 1012.3
20260902233421 92 273 0.9 1.7 0.00 0.00 0.00 57 1012.4
20260902232920 93 241 0.9 1.7 0.00 0.00 0.00 56 1012.1
20260902232415 93 285 0.0 0.9 0.00 0.00 0.00 56 1012.3
20260902231909 93 248 0.9 1.7 0.00 0.00 0.00 55 1012.2
20260902231404 93 270 0.9 0.9 0.00 0.00 0.00 54 1012.5
20260902230859 94 224 1.7 1.7 0.00 0.00 0.00 53 1012.3
20260902230358 94 268 0.9 0.9 0.00 0.00 0.00 52 1012.4
20260902225852 94 248 2.6 4.3 0.00 0.00 0.00 52 1012.5
20260902225347 93 251 0.9 1.7 0.00 0.00 0.00 54 1012.4
20260902224846 93 269 0.0 0.9 0.00 0.00 0.00 55 1012.4
20260902224341 93 303 0.9 0.9 0.00 0.00 0.00 53 1012.6
20260902223838 94 264 0.0 0.9 0.00 0.00 0.00 53 1012.4
20260902223337 94 305 0.0 1.7 0.00 0.00 0.00 52 1012.4
20260902222831 94 291 0.9 1.7 0.00 0.00 0.00 53 1012.4
20260902222330 94 257 0.9 1.7 0.00 0.00 0.00 52 1012.6
20260902221825 95 268 0.9 0.9 0.00 0.00 0.00 50 1012.5
20260902221324 95 295 0.0 4.3 0.00 0.00 0.00 50 1012.7
20260902220820 95 249 0.9 1.7 0.00 0.00 0.00 52 1012.6
20260902220319 95 276 0.9 2.6 0.00 0.00 0.00 51 1012.5
20260902215814 95 301 0.9 2.6 0.00 0.00 0.00 51 1012.6
20260902215309 95 277 0.0 2.6 0.00 0.00 0.00 50 1012.4
20260902214805 95 248 1.7 4.3 0.00 0.00 0.00 50 1012.5
20260902214304 95 305 0.0 0.9 0.00 0.00 0.00 51 1012.5
20260902213759 95 271 0.0 4.3 0.00 0.00 0.00 51 1012.7
20260902213254 95 274 0.9 4.3 0.00 0.00 0.00 50 1012.5
20260902212753 95 269 0.0 1.7 0.00 0.00 0.00 49 1012.5
20260902212250 96 312 1.7 1.7 0.00 0.00 0.00 48 1012.7
20260902211746 96 300 0.9 1.7 0.00 0.00 0.00 50 1012.6
20260902211242 96 240 0.9 1.7 0.00 0.00 0.00 49 1012.6
20260902210741 97 268 0.9 2.6 0.00 0.00 0.00 48 1012.8
20260902210237 96 287 1.7 2.6 0.00 0.00 0.00 48 1012.7
20260902205735 95 273 1.7 2.6 0.00 0.00 0.00 49 1012.7
20260902205230 96 260 0.9 0.9 0.00 0.00 0.00 50 1012.8
20260902204725 95 281 0.0 1.7 0.00 0.00 0.00 49 1012.6
20260902204215 95 261 2.6 2.6 0.00 0.00 0.00 48 1013.1
20260902203710 96 228 0.9 1.7 0.00 0.00 0.00 48 1013.1
20260902203210 96 344 1.7 1.7 0.00 0.00 0.00 48 1013.0
20260902202704 95 249 0.9 1.7 0.00 0.00 0.00 49 1012.9
20260902202201 95 264 2.6 5.2 0.00 0.00 0.00 49 1013.0
20260902201657 96 300 0.9 1.7 0.00 0.00 0.00 49 1012.9
20260902201156 95 213 1.7 1.7 0.00 0.00 0.00 54 1012.8
20260902200651 95 273 0.0 0.9 0.00 0.00 0.00 51 1013.0
20260902200147 95 300 0.9 0.9 0.00 0.00 0.00 50 1013.1
20260902195642 96 235 1.7 1.7 0.00 0.00 0.00 49 1013.1
20260902195136 96 235 2.6 6.1 0.00 0.00 0.00 47 1013.0
20260902194635 97 324 1.7 2.6 0.00 0.00 0.00 47 1013.1
20260902194131 96 269 0.0 2.6 0.00 0.00 0.00 48 1013.2
20260902193626 95 292 0.0 1.7 0.00 0.00 0.00 51 1013.5
20260902193121 96 274 0.0 1.7 0.00 0.00 0.00 50 1013.5
20260902192620 96 262 0.9 2.6 0.00 0.00 0.00 48 1013.7
20260902192118 96 281 1.7 1.7 0.00 0.00 0.00 48 1013.5
20260902191614 97 257 2.6 4.3 0.00 0.00 0.00 47 1013.8
20260902191108 97 266 0.9 5.2 0.00 0.00 0.00 47 1013.6
20260902190604 97 294 1.7 2.6 0.00 0.00 0.00 46 1013.8
20260902190059 96 259 0.9 4.3 0.00 0.00 0.00 46 1013.8
20260902185554 96 232 1.7 1.7 0.00 0.00 0.00 47 1013.8
20260902185050 96 253 0.9 2.6 0.00 0.00 0.00 48 1013.8
20260902184545 96 313 2.6 2.6 0.00 0.00 0.00 51 1013.9
20260902184040 96 237 2.6 5.2 0.00 0.00 0.00 47 1014.1
20260902183537 95 289 2.6 2.6 0.00 0.00 0.00 47 1014.0
20260902183033 95 286 0.0 4.3 0.00 0.00 0.00 51 1014.0
20260902182529 94 309 1.7 2.6 0.00 0.00 0.00 53 1014.0
20260902182025 95 287 0.9 2.6 0.00 0.00 0.00 51 1014.1
20260902181521 96 299 0.9 2.6 0.00 0.00 0.00 52 1014.3
20260902181015 95 282 0.0 0.9 0.00 0.00 0.00 53 1014.3
20260902180515 95 327 1.7 2.6 0.00 0.00 0.00 52 1014.4
20260902180011 94 295 0.0 0.9 0.00 0.00 0.00 53 1014.6
20260902175510 94 287 1.7 5.2 0.00 0.00 0.00 53 1014.5
20260902175007 95 277 0.9 2.6 0.00 0.00 0.00 52 1014.6
20260902174503 95 235 1.7 2.6 0.00 0.00 0.00 51 1014.5
20260902173958 95 271 0.0 2.6 0.00 0.00 0.00 51 1014.5
20260902173457 95 334 1.7 4.3 0.00 0.00 0.00 52 1014.8
20260902172953 95 283 0.9 4.3 0.00 0.00 0.00 52 1014.7
20260902172452 94 279 0.0 1.7 0.00 0.00 0.00 52 1014.8
20260902171947 94 235 2.6 4.3 0.00 0.00 0.00 51 1014.7
20260902171443 94 279 0.0 2.6 0.00 0.00 0.00 52 1014.6
20260902170939 94 249 2.6 2.6 0.00 0.00 0.00 51 1014.8
20260902170434 94 292 1.7 5.2 0.00 0.00 0.00 50 1014.9
20260902165929 94 277 2.6 4.3 0.00 0.00 0.00 51 1014.8
20260902165429 94 284 0.9 4.3 0.00 0.00 0.00 52 1015.0
20260902164929 94 234 1.7 5.2 0.00 0.00 0.00 53 1015.0
20260902164424 94 267 0.9 4.3 0.00 0.00 0.00 52 1014.8
20260902163923 93 260 0.9 5.2 0.00 0.00 0.00 53 1015.0
20260902163419 93 298 0.9 1.7 0.00 0.00 0.00 53 1015.0
20260902162916 93 240 1.7 2.6 0.00 0.00 0.00 53 1014.9
20260902162412 93 279 0.9 1.7 0.00 0.00 0.00 54 1015.1
20260902161906 93 282 0.9 1.7 0.00 0.00 0.00 54 1015.2
20260902161401 93 290 0.9 2.6 0.00 0.00 0.00 56 1015.2
20260902160857 93 292 0.0 0.9 0.00 0.00 0.00 55 1015.1
20260902160353 93 303 0.9 4.3 0.00 0.00 0.00 54 1015.2
20260902155850 93 269 0.9 1.7 0.00 0.00 0.00 55 1015.3
20260902155350 92 268 0.0 1.7 0.00 0.00 0.00 57 1015.2
20260902154845 92 278 0.9 4.3 0.00 0.00 0.00 57 1015.4
20260902154341 92 319 1.7 2.6 0.00 0.00 0.00 58 1015.4
20260902153839 92 272 0.9 2.6 0.00 0.00 0.00 58 1015.5
20260902153338 92 230 0.9 1.7 0.00 0.00 0.00 57 1015.3
20260902152835 92 304 0.9 2.6 0.00 0.00 0.00 58 1015.4
20260902152330 92 324 1.7 1.7 0.00 0.00 0.00 59 1015.5
20260902151826 92 251 0.9 0.9 0.00 0.00 0.00 59 1015.6
20260902151321 92 288 0.9 1.7 0.00 0.00 0.00 60 1015.4
20260902150815 91 289 0.0 1.7 0.00 0.00 0.00 61 1015.6
20260902150312 91 299 0.0 0.9 0.00 0.00 0.00 61 1015.6
20260902145811 90 252 1.7 1.7 0.00 0.00 0.00 60 1015.5
20260902145306 91 260 0.9 2.6 0.00 0.00 0.00 60 1015.6
20260902144802 91 307 0.0 1.7 0.00 0.00 0.00 60 1015.7
20260902144257 91 295 0.0 0.9 0.00 0.00 0.00 63 1015.4
20260902143752 90 261 0.0 1.7 0.00 0.00 0.00 62 1015.3
20260902143247 90 272 0.0 1.7 0.00 0.00 0.00 65 1015.5
20260902142743 89 277 0.0 1.7 0.00 0.00 0.00 65 1015.4
20260902142239 88 331 0.9 1.7 0.00 0.00 0.00 66 1015.4
20260902141738 88 251 0.0 0.9 0.00 0.00 0.00 69 1015.4
20260902141234 87 258 0.9 1.7 0.00 0.00 0.00 70 1015.7
20260902140729 86 223 0.9 1.7 0.00 0.00 0.00 72 1015.8
20260902140224 86 206 0.9 1.7 0.00 0.00 0.00 74 1015.8
20260902135723 86 224 0.9 0.9 0.00 0.00 0.00 73 1015.4
20260902135219 85 186 1.7 1.7 0.00 0.00 0.00 76 1015.6
20260902134719 85 227 0.9 1.7 0.00 0.00 0.00 74 1015.4
20260902134214 84 232 0.9 0.9 0.00 0.00 0.00 76 1015.7
20260902133709 84 247 0.9 1.7 0.00 0.00 0.00 76 1015.6
20260902133209 84 232 0.9 0.9 0.00 0.00 0.00 77 1015.5
20260902132704 84 235 0.0 1.7 0.00 0.00 0.00 77 1015.7
20260902132159 84 279 0.0 0.9 0.00 0.00 0.00 77 1015.7
20260902131654 83 239 0.0 0.9 0.00 0.00 0.00 78 1015.7
20260902131151 82 238 0.9 0.9 0.00 0.00 0.00 79 1015.6
20260902130646 81 234 0.9 0.9 0.00 0.00 0.00 80 1015.6
20260902130141 81 235 0.9 0.9 0.00 0.00 0.00 80 1015.6
20260902125637 81 264 0.9 0.9 0.00 0.00 0.00 80 1015.6
20260902125132 80 242 0.9 0.9 0.00 0.00 0.00 81 1015.3
20260902124629 80 248 0.9 0.9 0.00 0.00 0.00 81 1015.6
20260902124129 79 266 0.0 0.0 0.00 0.00 0.00 83 1015.5
20260902123625 78 255 0.0 0.0 0.00 0.00 0.00 85 1015.3
20260902123124 76 254 0.0 0.0 0.00 0.00 0.00 88 1015.5
20260902122619 75 256 0.0 0.0 0.00 0.00 0.00 91 1015.4
20260902122115 75 264 0.0 0.0 0.00 0.00 0.00 92 1015.5
20260902121615 75 265 0.0 0.0 0.00 0.00 0.00 93 1015.3
20260902121110 75 271 0.0 0.0 0.00 0.00 0.00 94 1015.4
20260902120606 74 270 0.0 0.0 0.00 0.00 0.00 94 1015.4
20260902115557 74 281 0.0 0.0 0.00 0.00 0.00 94 1015.4
20260902115053 73 281 0.0 0.0 0.00 0.00 0.00 95 1015.3
20260902114548 73 281 0.0 0.0 0.00 0.00 0.00 95 1015.2
20260902114048 73 282 0.0 0.0 0.00 0.00 0.00 95 1015.1
20260902113544 73 279 0.0 0.0 0.00 0.00 0.00 95 1014.9
20260902113039 73 293 0.0 0.0 0.00 0.00 0.00 95 1015.0
20260902112534 73 246 0.0 0.0 0.00 0.00 0.00 95 1015.0
20260902112031 72 246 0.0 0.0 0.00 0.00 0.00 95 1014.8
20260902111527 73 246 0.0 0.0 0.00 0.00 0.00 95 1015.0
20260902111022 73 246 0.0 0.0 0.00 0.00 0.00 95 1014.9
20260902110518 73 246 0.0 0.0 0.00 0.00 0.00 95 1015.1
20260902110014 73 246 0.0 0.0 0.00 0.00 0.00 95 1015.0
20260902105508 73 246 0.0 0.0 0.00 0.00 0.00 95 1014.8
20260902105008 73 246 0.0 0.0 0.00 0.00 0.00 94 1014.8
20260902104504 73 246 0.0 0.0 0.00 0.00 0.00 94 1015.2
20260902103958 73 246 0.0 0.0 0.00 0.00 0.00 94 1015.1
20260902103454 73 245 0.0 0.0 0.00 0.00 0.00 94 1014.9
20260902102949 73 246 0.0 0.0 0.00 0.00 0.00 94 1014.9
20260902102445 73 246 0.0 0.0 0.00 0.00 0.00 94 1014.7
20260902101942 73 245 0.0 0.0 0.00 0.00 0.00 94 1014.9
20260902101436 73 245 0.0 0.0 0.00 0.00 0.00 94 1014.7
20260902100935 73 245 0.0 0.0 0.00 0.00 0.00 94 1014.9
20260902100435 73 246 0.0 0.0 0.00 0.00 0.00 94 1014.8
20260902095930 73 246 0.0 0.0 0.00 0.00 0.00 94 1014.7
20260902095425 73 246 0.0 0.0 0.00 0.00 0.00 94 1014.6
20260902094924 74 246 0.0 0.0 0.00 0.00 0.00 94 1014.9
20260902094420 74 246 0.0 0.0 0.00 0.00 0.00 94 1014.6
20260902093915 74 246 0.0 0.0 0.00 0.00 0.00 94 1014.6
20260902093409 73 246 0.0 0.0 0.00 0.00 0.00 94 1014.8
20260902092908 74 246 0.0 0.0 0.00 0.00 0.00 94 1014.8
20260902092405 74 246 0.0 0.0 0.00 0.00 0.00 94 1014.9
20260902091905 74 246 0.0 0.0 0.00 0.00 0.00 94 1014.8
20260902091400 74 246 0.0 0.0 0.00 0.00 0.00 94 1014.7
20260902090857 74 246 0.0 0.0 0.00 0.00 0.00 94 1014.6
20260902090356 74 246 0.0 0.0 0.00 0.00 0.00 94 1014.6
20260902085855 74 246 0.0 0.0 0.00 0.00 0.00 94 1014.5
20260902085350 74 246 0.0 0.0 0.00 0.00 0.00 94 1014.7
20260902084846 74 246 0.0 0.0 0.00 0.00 0.00 94 1014.3
20260902084343 74 246 0.0 0.0 0.00 0.00 0.00 94 1014.5
20260902083838 74 246 0.0 0.0 0.00 0.00 0.00 94 1014.1
20260902083337 74 246 0.0 0.0 0.00 0.00 0.00 93 1014.0
20260902082833 74 246 0.0 0.0 0.00 0.00 0.00 93 1014.1
20260902082329 74 246 0.0 0.0 0.00 0.00 0.00 93 1014.0
20260902081825 75 246 0.0 0.0 0.00 0.00 0.00 93 1014.1
20260902081320 75 246 0.0 0.0 0.00 0.00 0.00 93 1013.9
20260902080815 75 246 0.0 0.0 0.00 0.00 0.00 93 1013.8
20260902080312 75 246 0.0 0.0 0.00 0.00 0.00 93 1013.9
20260902075811 75 246 0.0 0.0 0.00 0.00 0.00 93 1013.9
20260902075307 75 246 0.0 0.0 0.00 0.00 0.00 93 1013.7
20260902074802 75 246 0.0 0.0 0.00 0.00 0.00 92 1013.8
20260902074257 75 246 0.0 0.0 0.00 0.00 0.00 92 1013.9
20260902073752 75 246 0.0 0.0 0.00 0.00 0.00 92 1013.8
20260902073248 75 246 0.0 0.0 0.00 0.00 0.00 92 1013.8
20260902072744 75 246 0.0 0.0 0.00 0.00 0.00 92 1013.8
20260902072240 75 246 0.0 0.0 0.00 0.00 0.00 92 1013.9
20260902071736 75 246 0.0 0.0 0.00 0.00 0.00 92 1013.8
20260902071231 75 246 0.0 0.0 0.00 0.00 0.00 91 1013.9
20260902070728 76 246 0.0 0.0 0.00 0.00 0.00 91 1013.8
20260902070226 76 246 0.0 0.9 0.00 0.00 0.00 91 1013.6
20260902065726 76 246 0.0 0.0 0.00 0.00 0.00 91 1013.6
20260902065221 76 246 0.0 0.0 0.00 0.00 0.00 91 1013.6
20260902064717 76 246 0.0 0.0 0.00 0.00 0.00 91 1013.6
20260902064212 76 246 0.0 0.0 0.00 0.00 0.00 91 1013.6
20260902063708 76 246 0.0 0.9 0.00 0.00 0.00 90 1013.4
20260902063202 76 246 0.0 0.9 0.00 0.00 0.00 90 1013.7
20260902062701 76 246 0.0 0.0 0.00 0.00 0.00 90 1013.8
20260902062157 76 246 0.0 0.0 0.00 0.00 0.00 90 1013.8
20260902061655 76 246 0.0 0.0 0.00 0.00 0.00 90 1013.9
20260902061151 77 246 0.0 0.0 0.00 0.00 0.00 90 1013.7
20260902060648 77 246 0.0 0.0 0.00 0.00 0.00 89 1013.8
20260902060144 77 246 0.0 0.0 0.00 0.00 0.00 89 1013.9
20260902055639 77 246 0.0 0.0 0.00 0.00 0.00 88 1013.9
20260902055135 77 246 0.0 0.0 0.00 0.00 0.00 88 1014.0
20260902054630 77 246 0.0 0.0 0.00 0.00 0.00 88 1013.8
20260902054126 77 246 0.0 0.0 0.00 0.00 0.00 87 1013.9
20260902053620 78 246 0.0 0.0 0.00 0.00 0.00 87 1013.9
20260902053115 78 246 0.0 0.0 0.00 0.00 0.00 87 1013.8
20260902052609 78 246 0.0 0.9 0.00 0.00 0.00 87 1013.7
20260902052105 78 246 0.0 0.0 0.00 0.00 0.00 87 1014.0
20260902051604 78 246 0.0 0.9 0.00 0.00 0.00 87 1013.9
20260902051104 78 246 0.0 0.9 0.00 0.00 0.00 86 1013.8
20260902050558 78 246 0.0 0.0 0.00 0.00 0.00 86 1013.9
20260902050053 78 246 0.0 0.0 0.00 0.00 0.00 86 1013.8
20260902045549 78 246 0.0 0.0 0.00 0.00 0.00 86 1013.7
20260902045045 78 246 0.0 0.0 0.00 0.00 0.00 86 1013.6
20260902044545 78 246 0.0 0.0 0.00 0.00 0.00 85 1013.5
20260902044041 78 246 0.0 0.0 0.00 0.00 0.00 85 1013.5
20260902043536 78 246 0.0 0.0 0.00 0.00 0.00 85 1013.5
20260902043031 79 246 0.0 0.9 0.00 0.00 0.00 85 1013.7
20260902042530 79 246 0.0 0.0 0.00 0.00 0.00 85 1013.7
20260902042025 79 246 0.9 0.9 0.00 0.00 0.00 84 1013.7
20260902041520 80 246 0.0 0.9 0.00 0.00 0.00 84 1013.9
20260902041015 79 246 0.0 0.9 0.00 0.00 0.00 84 1013.8
20260902040514 79 246 0.0 0.0 0.00 0.00 0.00 84 1013.6
20260902040009 79 246 0.0 0.0 0.00 0.00 0.00 84 1013.7
20260902035502 80 246 0.0 0.0 0.00 0.00 0.00 83 1013.6
20260902034956 80 246 0.0 0.0 0.00 0.00 0.00 83 1013.9
20260902034451 80 246 0.0 0.0 0.00 0.00 0.00 83 1014.0
20260902033951 80 246 0.0 0.0 0.00 0.00 0.00 82 1013.8
20260902033450 80 246 0.0 0.0 0.00 0.00 0.00 82 1013.9
20260902032949 80 246 0.0 0.0 0.00 0.00 0.00 82 1013.6
20260902032444 81 246 0.0 0.0 0.00 0.00 0.00 82 1013.9
20260902031939 81 246 0.0 0.0 0.00 0.00 0.00 81 1013.8
20260902031434 81 246 0.0 0.0 0.00 0.00 0.00 81 1013.8
20260902030931 81 246 0.0 0.0 0.00 0.00 0.00 81 1013.6
20260902030430 81 246 0.0 0.0 0.00 0.00 0.00 80 1013.7
20260902025929 81 246 0.0 0.9 0.00 0.00 0.00 80 1013.5
20260902025425 82 246 0.0 0.0 0.00 0.00 0.00 79 1013.5
20260902024920 82 246 0.0 0.0 0.00 0.00 0.00 78 1013.6
20260902024415 82 246 0.0 0.0 0.00 0.00 0.00 78 1013.8
20260902023910 82 246 0.0 0.0 0.00 0.00 0.00 77 1013.5
20260902023406 83 245 0.0 0.9 0.00 0.00 0.00 76 1013.7
20260902022905 83 257 0.0 0.0 0.00 0.00 0.00 76 1013.7
20260902022400 83 257 0.0 0.0 0.00 0.00 0.00 75 1013.7
20260902021856 83 257 0.0 0.9 0.00 0.00 0.00 75 1013.6
20260902021355 83 257 0.0 0.0 0.00 0.00 0.00 74 1013.6
20260902020852 84 257 0.0 0.0 0.00 0.00 0.00 74 1013.8
20260902020348 84 257 0.0 0.0 0.00 0.00 0.00 73 1013.7
20260902015843 84 257 0.0 0.0 0.00 0.00 0.00 73 1013.7
20260902015338 84 257 0.0 0.0 0.00 0.00 0.00 72 1013.6
20260902014834 84 257 0.0 0.0 0.00 0.00 0.00 72 1013.6
20260902014331 84 257 0.0 0.0 0.00 0.00 0.00 71 1013.7
20260902013829 84 257 0.0 0.0 0.00 0.00 0.00 71 1013.6
20260902013325 84 257 0.0 0.0 0.00 0.00 0.00 71 1013.5
20260902012820 84 257 0.0 0.0 0.00 0.00 0.00 71 1013.4
20260902012316 85 257 0.0 0.0 0.00 0.00 0.00 70 1013.5
20260902011812 85 257 0.0 0.0 0.00 0.00 0.00 69 1013.5